NKS641 MBPV-KFLL

Flight info

Callsign NKS641
Flight time 1h 37m
Altitude 34000
Route ZQA OLAHS3
Aircraft A320/M-SDE3FGHIRWY/LB1

Departure

Time 2026-05-03 20:54
Airport Providenciales International Airport (MBPV)

Arrival

Time 2026-05-03 22:32
Airport Fort Lauderdale Hollywood International Airport (KFLL)
Time Latitude Longitude Altitude Speed Heading
2026-05-03 20:34 21.77576 -72.27296 42 ft 0 kts 33°
2026-05-03 20:46 21.77572 -72.27299 42 ft 4 kts 31°
2026-05-03 20:46 21.77548 -72.27310 39 ft 4 kts
2026-05-03 20:47 21.77525 -72.27304 39 ft 4 kts 308°
2026-05-03 20:47 21.77519 -72.27289 40 ft 1 kts 273°
2026-05-03 20:47 21.77518 -72.27286 40 ft 0 kts 273°
2026-05-03 20:50 21.77519 -72.27297 39 ft 4 kts 273°
2026-05-03 20:51 21.77522 -72.27347 41 ft 9 kts 273°
2026-05-03 20:51 21.77524 -72.27432 41 ft 13 kts 257°
2026-05-03 20:51 21.77427 -72.27466 38 ft 19 kts 188°
2026-05-03 20:51 21.77383 -72.27527 38 ft 7 kts 330°
2026-05-03 20:52 21.77408 -72.27579 38 ft 11 kts 273°
2026-05-03 20:52 21.77414 -72.27687 38 ft 22 kts 273°
2026-05-03 20:52 21.77423 -72.27887 38 ft 30 kts 273°
2026-05-03 20:52 21.77439 -72.28116 37 ft 15 kts 284°
2026-05-03 20:53 21.77477 -72.28195 37 ft 11 kts 263°
2026-05-03 20:53 21.77433 -72.28199 36 ft 7 kts 88°
2026-05-03 20:53 21.77431 -72.28088 37 ft 21 kts 90°
2026-05-03 20:53 21.77419 -72.27841 38 ft 60 kts 93°
2026-05-03 20:54 21.77385 -72.27162 37 ft 118 kts 93°
2026-05-03 20:54 21.77282 -72.24922 561 ft 163 kts 97°
2026-05-03 20:54 21.77223 -72.23699 925 ft 177 kts 94°
2026-05-03 20:55 21.77151 -72.22286 1221 ft 200 kts 94°
2026-05-03 20:55 21.77070 -72.20705 1646 ft 225 kts 95°
2026-05-03 20:55 21.76978 -72.18928 2116 ft 248 kts 95°
2026-05-03 20:55 21.76882 -72.17045 2912 ft 256 kts 94°
2026-05-03 20:56 21.76906 -72.15096 3669 ft 266 kts 81°
2026-05-03 20:56 21.77640 -72.13248 4415 ft 276 kts 53°
2026-05-03 20:56 21.79097 -72.11948 5198 ft 281 kts 25°
2026-05-03 20:56 21.81001 -72.11522 6019 ft 284 kts 356°
2026-05-03 20:57 21.82890 -72.12120 6792 ft 286 kts 327°
2026-05-03 20:57 21.84308 -72.13606 7524 ft 288 kts 303°
2026-05-03 20:57 21.85442 -72.15394 8262 ft 291 kts 302°
2026-05-03 20:57 21.86575 -72.17212 9015 ft 294 kts 302°
2026-05-03 20:58 21.87718 -72.19051 9744 ft 297 kts 302°
2026-05-03 20:58 21.88878 -72.20911 10328 ft 305 kts 303°
2026-05-03 20:58 21.90109 -72.22882 10477 ft 328 kts 302°
2026-05-03 20:58 21.91418 -72.24973 10745 ft 343 kts 303°
2026-05-03 20:59 21.92766 -72.27119 11304 ft 348 kts 303°
2026-05-03 20:59 21.94113 -72.29258 11921 ft 350 kts 303°
2026-05-03 20:59 21.95478 -72.31424 12565 ft 352 kts 303°
2026-05-03 20:59 21.96857 -72.33614 13209 ft 354 kts 303°
2026-05-03 21:00 21.98243 -72.35815 13811 ft 357 kts 303°
2026-05-03 21:00 21.99187 -72.37311 14161 ft 359 kts 303°
2026-05-03 21:00 22.01050 -72.40275 14871 ft 362 kts 303°
2026-05-03 21:00 22.02465 -72.42531 15394 ft 364 kts 303°
2026-05-03 21:01 22.03887 -72.44802 15901 ft 367 kts 303°
2026-05-03 21:01 22.05322 -72.47095 16418 ft 370 kts 303°
2026-05-03 21:01 22.06765 -72.49401 16929 ft 373 kts 303°
2026-05-03 21:01 22.08221 -72.51727 17433 ft 375 kts 303°
2026-05-03 21:02 22.09668 -72.54037 17922 ft 378 kts 303°
2026-05-03 21:02 22.11147 -72.56393 18396 ft 381 kts 303°
2026-05-03 21:02 22.12636 -72.58763 18822 ft 383 kts 303°
2026-05-03 21:02 22.14136 -72.61154 19232 ft 386 kts 303°
2026-05-03 21:03 22.15643 -72.63564 19637 ft 389 kts 303°
2026-05-03 21:03 22.17159 -72.65994 20072 ft 392 kts 302°
2026-05-03 21:03 22.18683 -72.68443 20500 ft 394 kts 302°
2026-05-03 21:03 22.20215 -72.70905 20916 ft 397 kts 302°
2026-05-03 21:04 22.21756 -72.73385 21321 ft 399 kts 302°
2026-05-03 21:04 22.23308 -72.75878 21734 ft 402 kts 302°
2026-05-03 21:04 22.24871 -72.78390 22137 ft 404 kts 302°
2026-05-03 21:04 22.26446 -72.80917 22542 ft 407 kts 301°
2026-05-03 21:05 22.28029 -72.83457 22928 ft 409 kts 301°
2026-05-03 21:05 22.29603 -72.85982 23304 ft 412 kts 301°
2026-05-03 21:05 22.31207 -72.88554 23669 ft 414 kts 301°
2026-05-03 21:05 22.32820 -72.91146 23991 ft 417 kts 301°
2026-05-03 21:06 22.34437 -72.93752 24327 ft 418 kts 301°
2026-05-03 21:06 22.36057 -72.96365 24670 ft 420 kts 301°
2026-05-03 21:06 22.37686 -72.98990 25026 ft 421 kts 301°
2026-05-03 21:06 22.39317 -73.01621 25366 ft 422 kts 301°
2026-05-03 21:07 22.40955 -73.04264 25706 ft 424 kts 301°
2026-05-03 21:07 22.42599 -73.06917 26039 ft 426 kts 301°
2026-05-03 21:07 22.44250 -73.09578 26368 ft 427 kts 301°
2026-05-03 21:07 22.45888 -73.12213 26686 ft 429 kts 301°
2026-05-03 21:08 22.47555 -73.14900 27003 ft 430 kts 301°
2026-05-03 21:08 22.49223 -73.17594 27302 ft 432 kts 301°
2026-05-03 21:08 22.50891 -73.20298 27625 ft 434 kts 300°
2026-05-03 21:08 22.52570 -73.23019 27947 ft 435 kts 301°
2026-05-03 21:09 22.54255 -73.25751 28297 ft 437 kts 300°
2026-05-03 21:09 22.55939 -73.28486 28663 ft 438 kts 300°
2026-05-03 21:09 22.57630 -73.31234 29012 ft 439 kts 300°
2026-05-03 21:09 22.59332 -73.33987 29354 ft 441 kts 300°
2026-05-03 21:10 22.61045 -73.36754 29694 ft 443 kts 300°
2026-05-03 21:10 22.62755 -73.39530 30014 ft 445 kts 300°
2026-05-03 21:10 22.64448 -73.42281 30326 ft 445 kts 300°
2026-05-03 21:10 22.66163 -73.45066 30741 ft 443 kts 300°
2026-05-03 21:11 22.67866 -73.47833 31172 ft 441 kts 300°
2026-05-03 21:11 22.69562 -73.50593 31612 ft 439 kts 300°
2026-05-03 21:11 22.71246 -73.53335 32049 ft 436 kts 300°
2026-05-03 21:11 22.72924 -73.56063 32495 ft 434 kts 300°
2026-05-03 21:12 22.74591 -73.58781 32964 ft 432 kts 300°
2026-05-03 21:12 22.76249 -73.61489 33420 ft 430 kts 300°
2026-05-03 21:12 22.77895 -73.64175 33867 ft 428 kts 301°
2026-05-03 21:12 22.79544 -73.66860 34012 ft 427 kts 300°
2026-05-03 21:13 22.82798 -73.72171 34026 ft 425 kts 300°
2026-05-03 21:13 22.86065 -73.77516 34041 ft 425 kts 300°
2026-05-03 21:14 22.89324 -73.82863 34024 ft 425 kts 300°
2026-05-03 21:14 22.92597 -73.88220 33654 ft 423 kts 300°
2026-05-03 21:15 22.95853 -73.93553 33657 ft 424 kts 300°
2026-05-03 21:15 22.99085 -73.98850 33657 ft 424 kts 300°
2026-05-03 21:16 23.00710 -74.01518 33803 ft 423 kts 300°
2026-05-03 21:16 23.02330 -74.04179 33988 ft 422 kts 300°
2026-05-03 21:16 23.05556 -74.09486 34031 ft 421 kts 300°
2026-05-03 21:17 23.08230 -74.13893 34035 ft 420 kts 300°
2026-05-03 21:17 23.11982 -74.20092 34035 ft 420 kts 300°
2026-05-03 21:18 23.15174 -74.25350 34035 ft 420 kts 300°
2026-05-03 21:18 23.18384 -74.30655 34036 ft 420 kts 300°
2026-05-03 21:19 23.21585 -74.35961 34040 ft 420 kts 299°
2026-05-03 21:19 23.24792 -74.41261 34055 ft 419 kts 300°
2026-05-03 21:20 23.27990 -74.46553 34048 ft 418 kts 300°
2026-05-03 21:20 23.31164 -74.51797 34063 ft 418 kts 299°
2026-05-03 21:21 23.34349 -74.57080 34057 ft 417 kts 299°
2026-05-03 21:21 23.37517 -74.62355 34054 ft 416 kts 299°
2026-05-03 21:22 23.40687 -74.67634 34053 ft 416 kts 299°
2026-05-03 21:22 23.43856 -74.72908 34051 ft 416 kts 299°
2026-05-03 21:23 23.46994 -74.78144 34048 ft 415 kts 299°
2026-05-03 21:23 23.50150 -74.83415 34047 ft 415 kts 299°
2026-05-03 21:24 23.53301 -74.88692 34046 ft 415 kts 299°
2026-05-03 21:24 23.56457 -74.93964 34044 ft 415 kts 299°
2026-05-03 21:25 23.59614 -74.99232 34045 ft 415 kts 299°
2026-05-03 21:25 23.62759 -75.04503 34042 ft 415 kts 299°
2026-05-03 21:26 23.65879 -75.09743 34058 ft 415 kts 298°
2026-05-03 21:26 23.69020 -75.15020 34052 ft 414 kts 298°
2026-05-03 21:27 23.72150 -75.20293 34044 ft 414 kts 298°
2026-05-03 21:27 23.75278 -75.25571 34045 ft 414 kts 298°
2026-05-03 21:28 23.78422 -75.30843 34043 ft 414 kts 298°
2026-05-03 21:28 23.81536 -75.36084 34043 ft 414 kts 298°
2026-05-03 21:29 23.84661 -75.41362 34045 ft 414 kts 298°
2026-05-03 21:29 23.87782 -75.46648 34044 ft 414 kts 298°
2026-05-03 21:30 23.90907 -75.51933 34044 ft 414 kts 298°
2026-05-03 21:30 23.94027 -75.57219 34045 ft 414 kts 298°
2026-05-03 21:31 23.97132 -75.62474 34047 ft 414 kts 298°
2026-05-03 21:31 24.00247 -75.67757 34043 ft 414 kts 298°
2026-05-03 21:32 24.03361 -75.73053 34041 ft 414 kts 298°
2026-05-03 21:32 24.06470 -75.78350 34042 ft 414 kts 298°
2026-05-03 21:33 24.09587 -75.83649 34049 ft 414 kts 298°
2026-05-03 21:33 24.12691 -75.88948 34048 ft 414 kts 298°
2026-05-03 21:34 24.15778 -75.94220 34044 ft 414 kts 298°
2026-05-03 21:34 24.18889 -75.99524 34043 ft 414 kts 298°
2026-05-03 21:35 24.21997 -76.04826 34043 ft 414 kts 298°
2026-05-03 21:35 24.25101 -76.10133 34042 ft 414 kts 298°
2026-05-03 21:36 24.28196 -76.15443 34048 ft 413 kts 298°
2026-05-03 21:36 24.31268 -76.20713 34048 ft 413 kts 298°
2026-05-03 21:37 24.34359 -76.26019 34044 ft 412 kts 298°
2026-05-03 21:37 24.37438 -76.31320 34040 ft 412 kts 298°
2026-05-03 21:38 24.40521 -76.36623 34062 ft 412 kts 297°
2026-05-03 21:38 24.43575 -76.41883 34054 ft 411 kts 297°
2026-05-03 21:39 24.46646 -76.47176 34048 ft 411 kts 297°
2026-05-03 21:39 24.49708 -76.52473 34050 ft 411 kts 297°
2026-05-03 21:40 24.52770 -76.57774 34043 ft 411 kts 297°
2026-05-03 21:40 24.55809 -76.63034 34040 ft 410 kts 297°
2026-05-03 21:41 24.58866 -76.68332 34041 ft 411 kts 297°
2026-05-03 21:41 24.61923 -76.73632 34040 ft 411 kts 297°
2026-05-03 21:42 24.64982 -76.78933 34038 ft 411 kts 297°
2026-05-03 21:42 24.67522 -76.83344 34036 ft 410 kts 297°
2026-05-03 21:43 24.71080 -76.89541 34053 ft 410 kts 297°
2026-05-03 21:43 24.74130 -76.94855 34051 ft 410 kts 297°
2026-05-03 21:44 24.77154 -77.00124 34063 ft 410 kts 297°
2026-05-03 21:44 24.80194 -77.05425 34051 ft 410 kts 297°
2026-05-03 21:45 24.83234 -77.10736 34046 ft 410 kts 297°
2026-05-03 21:45 24.86273 -77.16049 34043 ft 410 kts 297°
2026-05-03 21:46 24.89305 -77.21364 34044 ft 410 kts 297°
2026-05-03 21:46 24.92314 -77.26642 34049 ft 409 kts 297°
2026-05-03 21:47 24.95337 -77.31942 34052 ft 409 kts 297°
2026-05-03 21:47 24.98357 -77.37245 34051 ft 408 kts 297°
2026-05-03 21:48 25.01369 -77.42550 34046 ft 408 kts 297°
2026-05-03 21:48 25.03841 -77.48041 34041 ft 402 kts 288°
2026-05-03 21:49 25.05986 -77.53786 34046 ft 402 kts 288°
2026-05-03 21:49 25.08105 -77.59453 34049 ft 402 kts 288°
2026-05-03 21:50 25.10231 -77.65139 34056 ft 401 kts 288°
2026-05-03 21:50 25.12354 -77.70831 34050 ft 400 kts 288°
2026-05-03 21:51 25.14473 -77.76511 34067 ft 400 kts 287°
2026-05-03 21:51 25.16585 -77.82187 34056 ft 400 kts 287°
2026-05-03 21:52 25.18682 -77.87823 34050 ft 400 kts 287°
2026-05-03 21:52 25.20791 -77.93492 34046 ft 399 kts 287°
2026-05-03 21:53 25.22895 -77.99173 34041 ft 399 kts 287°
2026-05-03 21:53 25.24995 -78.04850 34040 ft 399 kts 287°
2026-05-03 21:54 25.27099 -78.10536 34036 ft 399 kts 287°
2026-05-03 21:54 25.28146 -78.13371 33920 ft 400 kts 287°
2026-05-03 21:54 25.29195 -78.16211 33446 ft 397 kts 287°
2026-05-03 21:55 25.30234 -78.19018 32939 ft 394 kts 287°
2026-05-03 21:55 25.31288 -78.21761 32426 ft 392 kts 288°
2026-05-03 21:55 25.32389 -78.24514 31906 ft 390 kts 288°
2026-05-03 21:55 25.33500 -78.27240 31390 ft 388 kts 289°
2026-05-03 21:56 25.34611 -78.29960 30875 ft 387 kts 288°
2026-05-03 21:56 25.35709 -78.32662 30365 ft 385 kts 288°
2026-05-03 21:56 25.36796 -78.35358 29817 ft 383 kts 288°
2026-05-03 21:56 25.37875 -78.38044 29300 ft 380 kts 288°
2026-05-03 21:57 25.38939 -78.40704 28809 ft 377 kts 288°
2026-05-03 21:57 25.39993 -78.43342 28331 ft 373 kts 288°
2026-05-03 21:57 25.41034 -78.45957 27866 ft 370 kts 288°
2026-05-03 21:57 25.42040 -78.48522 27412 ft 367 kts 288°
2026-05-03 21:58 25.43039 -78.51122 26959 ft 365 kts 288°
2026-05-03 21:58 25.44019 -78.53694 26527 ft 362 kts 288°
2026-05-03 21:58 25.44993 -78.56258 26091 ft 361 kts 288°
2026-05-03 21:58 25.45963 -78.58809 25662 ft 359 kts 288°
2026-05-03 21:59 25.46931 -78.61348 25232 ft 357 kts 288°
2026-05-03 21:59 25.47898 -78.63875 24796 ft 356 kts 288°
2026-05-03 21:59 25.48863 -78.66387 24368 ft 354 kts 288°
2026-05-03 21:59 25.49828 -78.68896 23926 ft 354 kts 289°
2026-05-03 22:00 25.50790 -78.71402 23452 ft 353 kts 289°
2026-05-03 22:00 25.51746 -78.73900 23001 ft 351 kts 288°
2026-05-03 22:00 25.52693 -78.76385 22498 ft 349 kts 288°
2026-05-03 22:00 25.53620 -78.78818 22044 ft 347 kts 288°
2026-05-03 22:01 25.54554 -78.81268 21580 ft 344 kts 288°
2026-05-03 22:01 25.55484 -78.83701 21109 ft 342 kts 289°
2026-05-03 22:01 25.56413 -78.86123 20652 ft 341 kts 289°
2026-05-03 22:01 25.57337 -78.88534 20183 ft 339 kts 289°
2026-05-03 22:02 25.58256 -78.90938 19704 ft 338 kts 289°
2026-05-03 22:02 25.58862 -78.92526 19403 ft 338 kts 289°
2026-05-03 22:02 25.59775 -78.94922 18947 ft 337 kts 289°
2026-05-03 22:02 25.60683 -78.97317 18469 ft 337 kts 289°
2026-05-03 22:03 25.61584 -78.99698 17996 ft 335 kts 289°
2026-05-03 22:03 25.62772 -79.02835 17363 ft 333 kts 289°
2026-05-03 22:03 25.63658 -79.05181 16933 ft 330 kts 289°
2026-05-03 22:03 25.64538 -79.07524 16534 ft 326 kts 289°
2026-05-03 22:04 25.65126 -79.09094 16163 ft 327 kts 289°
2026-05-03 22:04 25.65863 -79.11065 15829 ft 324 kts 289°
2026-05-03 22:04 25.66843 -79.13680 15387 ft 321 kts 289°
2026-05-03 22:04 25.67698 -79.15960 14971 ft 319 kts 289°
2026-05-03 22:05 25.68548 -79.18225 14559 ft 318 kts 289°
2026-05-03 22:05 25.69397 -79.20488 14158 ft 317 kts 289°
2026-05-03 22:05 25.70242 -79.22741 13761 ft 316 kts 289°
2026-05-03 22:05 25.71073 -79.24967 13336 ft 314 kts 289°
2026-05-03 22:06 25.71911 -79.27211 12938 ft 312 kts 290°
2026-05-03 22:06 25.72740 -79.29424 12535 ft 310 kts 290°
2026-05-03 22:06 25.73558 -79.31620 12152 ft 307 kts 289°
2026-05-03 22:06 25.74354 -79.33778 11776 ft 305 kts 289°
2026-05-03 22:07 25.75151 -79.35949 11403 ft 303 kts 289°
2026-05-03 22:07 25.75941 -79.38106 11036 ft 301 kts 290°
2026-05-03 22:07 25.76724 -79.40248 10781 ft 295 kts 290°
2026-05-03 22:07 25.77484 -79.42318 10640 ft 286 kts 290°
2026-05-03 22:08 25.78227 -79.44348 10348 ft 283 kts 289°
2026-05-03 22:08 25.78962 -79.46365 10021 ft 281 kts 289°
2026-05-03 22:08 25.79816 -79.48702 9629 ft 280 kts 289°
2026-05-03 22:08 25.80318 -79.50072 9389 ft 279 kts 289°
2026-05-03 22:09 25.81121 -79.52262 8989 ft 278 kts 290°
2026-05-03 22:09 25.81865 -79.54295 8640 ft 277 kts 290°
2026-05-03 22:09 25.82585 -79.56272 8283 ft 276 kts 290°
2026-05-03 22:10 25.84002 -79.60154 8002 ft 271 kts 290°
2026-05-03 22:10 25.84720 -79.62088 8006 ft 271 kts 290°
2026-05-03 22:10 25.85448 -79.64021 8007 ft 271 kts 290°
2026-05-03 22:10 25.86204 -79.65937 7929 ft 271 kts 292°
2026-05-03 22:11 25.87012 -79.67838 7520 ft 274 kts 293°
2026-05-03 22:11 25.87844 -79.69741 7164 ft 274 kts 294°
2026-05-03 22:11 25.88678 -79.71637 6825 ft 273 kts 294°
2026-05-03 22:11 25.89530 -79.73577 6507 ft 272 kts 293°
2026-05-03 22:12 25.89779 -79.74148 6428 ft 271 kts 293°
2026-05-03 22:12 25.91995 -79.79307 6004 ft 263 kts 293°
2026-05-03 22:12 25.92686 -79.80931 6007 ft 264 kts 293°
2026-05-03 22:13 25.93470 -79.82771 6007 ft 264 kts 292°
2026-05-03 22:13 25.94256 -79.84615 6008 ft 264 kts 293°
2026-05-03 22:13 25.95029 -79.86436 6006 ft 264 kts 292°
2026-05-03 22:13 25.95818 -79.88300 6003 ft 264 kts 292°
2026-05-03 22:14 25.96600 -79.90148 6003 ft 264 kts 292°
2026-05-03 22:14 25.97382 -79.91993 6004 ft 264 kts 292°
2026-05-03 22:14 25.98161 -79.93835 6004 ft 264 kts 292°
2026-05-03 22:14 25.99193 -79.95777 6004 ft 266 kts 306°
2026-05-03 22:15 26.00289 -79.97138 6005 ft 268 kts 309°
2026-05-03 22:15 26.01541 -79.98671 6005 ft 268 kts 309°
2026-05-03 22:15 26.02790 -80.00204 6008 ft 268 kts 309°
2026-05-03 22:15 26.04036 -80.01741 6009 ft 268 kts 309°
2026-05-03 22:16 26.05302 -80.03305 6010 ft 268 kts 309°
2026-05-03 22:16 26.06525 -80.04817 6009 ft 267 kts 309°
2026-05-03 22:16 26.07761 -80.06347 6009 ft 266 kts 308°
2026-05-03 22:16 26.09000 -80.07883 6009 ft 267 kts 308°
2026-05-03 22:17 26.10239 -80.09418 6009 ft 266 kts 309°
2026-05-03 22:17 26.11473 -80.10948 6010 ft 266 kts 308°
2026-05-03 22:17 26.12692 -80.12457 6009 ft 266 kts 309°
2026-05-03 22:17 26.13898 -80.14011 6009 ft 264 kts 302°
2026-05-03 22:18 26.14723 -80.15810 6008 ft 261 kts 286°
2026-05-03 22:18 26.15035 -80.17786 5895 ft 259 kts 270°
2026-05-03 22:18 26.15034 -80.19797 5782 ft 260 kts 269°
2026-05-03 22:18 26.15037 -80.21802 5676 ft 258 kts 269°
2026-05-03 22:19 26.15045 -80.23807 5571 ft 259 kts 269°
2026-05-03 22:19 26.15055 -80.25776 5456 ft 250 kts 269°
2026-05-03 22:19 26.15078 -80.27678 5317 ft 241 kts 270°
2026-05-03 22:19 26.15096 -80.29455 5190 ft 224 kts 269°
2026-05-03 22:20 26.15098 -80.31151 5081 ft 215 kts 269°
2026-05-03 22:20 26.15088 -80.32785 4959 ft 207 kts 268°
2026-05-03 22:20 26.15072 -80.34350 4838 ft 199 kts 268°
2026-05-03 22:20 26.15051 -80.35873 4658 ft 194 kts 268°
2026-05-03 22:21 26.15026 -80.37368 4404 ft 191 kts 268°
2026-05-03 22:21 26.14999 -80.38842 4045 ft 190 kts 268°
2026-05-03 22:21 26.14972 -80.40309 4018 ft 191 kts 269°
2026-05-03 22:21 26.14944 -80.41787 4015 ft 191 kts 268°
2026-05-03 22:22 26.14915 -80.43245 4011 ft 192 kts 268°
2026-05-03 22:22 26.14882 -80.44741 4016 ft 193 kts 268°
2026-05-03 22:22 26.14850 -80.46196 4015 ft 185 kts 268°
2026-05-03 22:22 26.14821 -80.47635 4026 ft 185 kts 268°
2026-05-03 22:23 26.14790 -80.49064 4027 ft 183 kts 268°
2026-05-03 22:23 26.14762 -80.50474 4016 ft 183 kts 269°
2026-05-03 22:23 26.14731 -80.51886 4021 ft 183 kts 268°
2026-05-03 22:23 26.14683 -80.53305 4023 ft 184 kts 262°
2026-05-03 22:24 26.14117 -80.54558 4029 ft 186 kts 223°
2026-05-03 22:24 26.12937 -80.55109 4025 ft 190 kts 185°
2026-05-03 22:24 26.11669 -80.54702 4022 ft 197 kts 145°
2026-05-03 22:24 26.10767 -80.53544 4023 ft 200 kts 125°
2026-05-03 22:25 26.10029 -80.52221 4025 ft 202 kts 124°
2026-05-03 22:25 26.09314 -80.50868 4023 ft 203 kts 123°
2026-05-03 22:25 26.08606 -80.49509 4020 ft 204 kts 122°
2026-05-03 22:25 26.07962 -80.48125 4019 ft 205 kts 109°
2026-05-03 22:26 26.07808 -80.46539 4022 ft 209 kts 91°
2026-05-03 22:26 26.07812 -80.44932 4015 ft 208 kts 90°
2026-05-03 22:26 26.07813 -80.43327 4021 ft 207 kts 90°
2026-05-03 22:26 26.07809 -80.41724 4018 ft 207 kts 90°
2026-05-03 22:27 26.07803 -80.40121 3962 ft 207 kts 91°
2026-05-03 22:27 26.07797 -80.38523 3753 ft 205 kts 90°
2026-05-03 22:27 26.07791 -80.36933 3504 ft 205 kts 90°
2026-05-03 22:27 26.07783 -80.35041 3197 ft 200 kts 90°
2026-05-03 22:28 26.07778 -80.33831 2989 ft 197 kts 90°
2026-05-03 22:28 26.07771 -80.32317 2727 ft 189 kts 90°
2026-05-03 22:28 26.07765 -80.30955 2514 ft 171 kts 90°
2026-05-03 22:28 26.07759 -80.29701 2290 ft 156 kts 90°
2026-05-03 22:29 26.07753 -80.28396 2071 ft 149 kts 89°
2026-05-03 22:29 26.07748 -80.27379 1901 ft 146 kts 89°
2026-05-03 22:29 26.07743 -80.26254 1715 ft 145 kts 89°
2026-05-03 22:29 26.07738 -80.25134 1522 ft 144 kts 88°
2026-05-03 22:30 26.07732 -80.23844 1300 ft 144 kts 89°
2026-05-03 22:30 26.07727 -80.22916 1141 ft 143 kts 87°
2026-05-03 22:30 26.07721 -80.21810 962 ft 142 kts 88°
2026-05-03 22:30 26.07716 -80.20722 788 ft 143 kts 88°
2026-05-03 22:31 26.07710 -80.19607 596 ft 142 kts 88°
2026-05-03 22:31 26.07705 -80.18522 415 ft 142 kts 86°
2026-05-03 22:31 26.07698 -80.17426 216 ft 142 kts 85°
2026-05-03 22:31 26.07696 -80.16330 46 ft 141 kts 93°
2026-05-03 22:32 26.07691 -80.15352 16 ft 104 kts 91°
2026-05-03 22:32 26.07685 -80.14882 19 ft 12 kts 90°
2026-05-03 22:32 26.07685 -80.14873 19 ft 3 kts 90°
2026-05-03 22:32 26.07679 -80.14572 19 ft 23 kts 93°
2026-05-03 22:33 26.07640 -80.14428 20 ft 14 kts 121°
2026-05-03 22:33 26.07619 -80.14398 19 ft 0 kts 144°